Weather History for KCNB - October, 2011

Change the Weather History Date:

Sunday, October 9, 2011

  Actual Average (KMML) Record (KMML)
Temperature  
Mean Temperature 66 °F -  
Max Temperature 77 °F 60 °F 86 °F (1980)
Min Temperature 54 °F 39 °F 21 °F (1964)
Growing Degree Days 16 (Base 50)    
Moisture  
Dew Point 55 °F    
Average Humidity 81    
Maximum Humidity 96    
Minimum Humidity 45    
Precipitation  
Precipitation 0.00 in - - ()
Sea Level Pressure  
Sea Level Pressure 30.13 in    
Wind  
Wind Speed 4 mph (East)    
Max Wind Speed 16 mph    
Max Gust Speed 23 mph    
Visibility 9 miles    
Events Rain    
Averages and records for this station are not official NWS values.
T = Trace of Precipitation, MM = Missing Value Source: NWS Daily Summary

Daily Weather History Graph

Daily Weather History Graph

Search for Another Location

Airport or City:

Trip Planner

Search our weather history database for the weather conditions in past years. The results will help you decide how hot, cold, wet, or windy it might be!

Date:

Astronomy

Oct. 09, 2011 Rise Set
Actual Time 7:32 AM CDT 6:51 PM CDT
Civil Twilight 7:03 AM CDT 7:20 PM CDT
Nautical Twilight 6:29 AM CDT 7:54 PM CDT
Astronomical Twilight 5:55 AM CDT 8:28 PM CDT
Moon 5:31 PM CDT (10/9) 5:14 AM CDT (10/9)
Length of Visible Light 12h 17m
Length of Day
11h 18m
Waxing Gibbous, 95% of the Moon is Illuminated
Oct 9
Waxing Gibbous
Oct 11
Full
Oct 19
Last Quarter
Oct 26
New
Nov 2
First Quarter

Hourly Weather History & Observations

Time (CDT) Temp. Dew Point Humidity Pressure Visibility Wind Dir Wind Speed Gust Speed Precip Events Conditions
12:14 AM 58.1 °F 53.2 °F 84% 30.17 in 10.0 mi North 4.6 mph - N/A   Overcast
12:35 AM 58.1 °F 52.9 °F 83% 30.17 in 10.0 mi Calm Calm - N/A   Light Drizzle
12:55 AM 58.1 °F 52.7 °F 82% 30.17 in 10.0 mi NNW 3.5 mph - N/A   Overcast
1:14 AM 57.7 °F 53.1 °F 84% 30.18 in 10.0 mi WNW 4.6 mph - N/A   Overcast
1:34 AM 57.4 °F 53.1 °F 85% 30.18 in 10.0 mi NNW 4.6 mph - N/A Rain Light Rain
1:55 AM 57.2 °F 52.5 °F 84% 30.18 in 10.0 mi Calm Calm - N/A   Overcast
2:15 AM 57.2 °F 52.7 °F 85% 30.18 in 10.0 mi NNW 3.5 mph - N/A Rain Light Rain
2:35 AM 55.9 °F 52.0 °F 87% 30.18 in 10.0 mi WNW 4.6 mph - N/A   Mostly Cloudy
3:14 AM 55.6 °F 52.7 °F 90% 30.18 in 10.0 mi Calm Calm - N/A   Mostly Cloudy
3:34 AM 55.6 °F 52.9 °F 91% 30.18 in 10.0 mi WNW 3.5 mph - N/A   Overcast
3:55 AM 55.8 °F 52.7 °F 89% 30.17 in 10.0 mi NNW 3.5 mph - N/A   Overcast
4:14 AM 55.9 °F 52.7 °F 89% 30.18 in 10.0 mi West 4.6 mph - N/A   Drizzle
4:34 AM 55.4 °F 52.9 °F 91% 30.19 in 5.0 mi NW 3.5 mph - N/A Rain Rain
4:55 AM 54.9 °F 53.1 °F 94% 30.19 in 5.0 mi NW 4.6 mph - N/A Rain Heavy Rain
5:15 AM 54.5 °F 53.1 °F 95% 30.19 in 7.0 mi NNW 3.5 mph - N/A Rain Rain
5:35 AM 54.5 °F 52.9 °F 94% 30.19 in 10.0 mi Calm Calm - N/A   Light Drizzle
5:55 AM 54.5 °F 53.1 °F 95% 30.19 in 10.0 mi North 3.5 mph - N/A   Overcast
6:14 AM 54.7 °F 53.6 °F 96% 30.18 in 10.0 mi North 3.5 mph - N/A   Overcast
6:35 AM 54.9 °F 53.6 °F 96% 30.19 in 10.0 mi Calm Calm - N/A   Overcast
6:54 AM 54.9 °F 53.8 °F 96% 30.18 in 10.0 mi NW 3.5 mph - N/A   Light Drizzle
7:15 AM 54.9 °F 53.8 °F 96% 30.18 in 10.0 mi WNW 4.6 mph - N/A   Overcast
8:15 AM 55.4 °F 54.1 °F 96% 30.18 in 10.0 mi NNW 5.8 mph - N/A   Overcast
8:34 AM 55.6 °F 54.0 °F 94% 30.19 in 10.0 mi NNW 3.5 mph - N/A   Overcast
8:55 AM 55.9 °F 54.1 °F 94% 30.19 in 10.0 mi Calm Calm - N/A   Overcast
9:14 AM 56.3 °F 54.1 °F 92% 30.18 in 10.0 mi North 4.6 mph - N/A   Overcast
9:35 AM 56.7 °F 54.7 °F 93% 30.18 in 10.0 mi North 4.6 mph - N/A   Overcast
9:54 AM 57.2 °F 55.0 °F 92% 30.18 in 10.0 mi NNE 3.5 mph - N/A   Overcast
10:14 AM 57.6 °F 55.9 °F 94% 30.18 in 10.0 mi Calm Calm - N/A   Overcast
10:35 AM 58.3 °F 56.7 °F 94% 30.18 in 5.0 mi Calm Calm - N/A   Overcast
10:55 AM 58.6 °F 57.2 °F 95% 30.18 in 2.5 mi Calm Calm - N/A   Overcast
11:14 AM 59.0 °F 57.7 °F 96% 30.18 in 2.0 mi Calm Calm - N/A   Overcast
11:35 AM 59.2 °F 58.1 °F 96% 30.18 in 2.5 mi ESE 4.6 mph - N/A   Overcast
11:54 AM 59.9 °F 58.6 °F 96% 30.17 in 5.0 mi ESE 5.8 mph - N/A   Overcast
12:14 PM 60.4 °F 58.8 °F 94% 30.17 in 5.0 mi ESE 6.9 mph - N/A   Overcast
12:35 PM 61.7 °F 59.5 °F 93% 30.16 in 7.0 mi SE 3.5 mph - N/A   Overcast
12:55 PM 62.6 °F 59.2 °F 89% 30.15 in 7.0 mi SSE 3.5 mph - N/A   Overcast
1:15 PM 63.5 °F 59.5 °F 87% 30.14 in 7.0 mi SSE 4.6 mph - N/A   Overcast
1:34 PM 64.0 °F 59.9 °F 86% 30.12 in 7.0 mi ESE 4.6 mph - N/A   Overcast
1:55 PM 65.3 °F 60.4 °F 84% 30.12 in 7.0 mi SSE 3.5 mph - N/A   Overcast
2:15 PM 65.7 °F 60.6 °F 84% 30.10 in 7.0 mi East 4.6 mph - N/A   Overcast
2:35 PM 66.6 °F 61.7 °F 84% 30.10 in 7.0 mi East 4.6 mph - N/A   Scattered Clouds
3:15 PM 70.5 °F 62.6 °F 76% 30.07 in 10.0 mi East 6.9 mph - N/A   Clear
3:35 PM 71.4 °F 62.8 °F 74% 30.05 in 10.0 mi East 6.9 mph - N/A   Clear
3:55 PM 72.5 °F 63.0 °F 72% 30.05 in 7.0 mi ENE 5.8 mph - N/A   Clear
4:14 PM 74.3 °F 62.6 °F 67% 30.04 in 10.0 mi ENE 5.8 mph - N/A   Scattered Clouds
4:35 PM 77.5 °F 54.5 °F 45% 30.03 in 10.0 mi SSE 16.1 mph 23.0 mph N/A   Mostly Cloudy
4:55 PM 75.6 °F 55.0 °F 49% 30.03 in 10.0 mi SSE 12.7 mph - N/A   Mostly Cloudy
5:15 PM 76.6 °F 55.0 °F 47% 30.03 in 10.0 mi SSE 13.8 mph 21.9 mph N/A   Scattered Clouds
5:35 PM 75.4 °F 54.3 °F 48% 30.02 in 10.0 mi SE 16.1 mph 20.7 mph N/A   Clear
6:15 PM 73.0 °F 54.5 °F 52% 30.02 in 10.0 mi SE 8.1 mph - N/A   Scattered Clouds
6:35 PM 71.1 °F 54.7 °F 56% 30.02 in 10.0 mi SE 8.1 mph - N/A   Scattered Clouds
6:55 PM 69.6 °F 54.3 °F 58% 30.02 in 10.0 mi ESE 8.1 mph - N/A   Clear
7:35 PM 66.4 °F 53.8 °F 64% 30.02 in 10.0 mi SE 8.1 mph - N/A   Clear
7:55 PM 65.7 °F 53.1 °F 64% 30.02 in 10.0 mi SE 8.1 mph - N/A   Clear
8:15 PM 65.7 °F 52.7 °F 63% 30.02 in 10.0 mi SE 9.2 mph - N/A   Clear
8:35 PM 65.1 °F 52.2 °F 63% 30.02 in 10.0 mi SE 9.2 mph - N/A   Clear
8:55 PM 64.6 °F 52.0 °F 64% 30.02 in 10.0 mi SE 9.2 mph - N/A   Clear
9:15 PM 63.9 °F 51.6 °F 64% 30.02 in 10.0 mi SE 9.2 mph - N/A   Clear
9:34 PM 63.9 °F 51.1 °F 63% 30.02 in 10.0 mi SE 8.1 mph - N/A   Clear
9:54 PM 62.8 °F 51.1 °F 66% 30.02 in 10.0 mi SE 8.1 mph - N/A   Clear
10:15 PM 62.2 °F 51.1 °F 67% 30.02 in 10.0 mi SE 8.1 mph - N/A   Clear
10:35 PM 61.0 °F 51.1 °F 70% 30.02 in 10.0 mi SE 6.9 mph - N/A   Clear
10:54 PM 61.7 °F 51.1 °F 68% 30.02 in 10.0 mi SE 6.9 mph - N/A   Clear
11:15 PM 60.4 °F 50.9 °F 71% 30.02 in 10.0 mi SE 8.1 mph - N/A   Clear
11:34 PM 59.4 °F 50.9 °F 74% 30.02 in 10.0 mi ESE 6.9 mph - N/A   Clear
11:54 PM 58.5 °F 50.9 °F 76% 30.01 in 10.0 mi SE 6.9 mph - N/A   Scattered Clouds